Time,TemperatureF,DewpointF,PressureIn,WindDirection,WindDirectionDegrees,WindSpeedMPH,WindSpeedGustMPH,Humidity,HourlyPrecipIn,Conditions,Clouds,dailyrainin,SoftwareType,DateUTC
2013-03-05 00:08:00,28.0,20.0,30.03,North,351,0.0,2.0,72,0.00,,,0.00,weatherlink.com 1.10,2013-03-05 05:08:00,
2013-03-05 00:23:00,27.5,20.0,30.03,North,351,1.0,2.0,73,0.00,,,0.00,weatherlink.com 1.10,2013-03-05 05:23:00,
2013-03-05 00:38:00,28.3,20.0,30.03,NW,306,5.0,6.0,71,0.00,,,0.00,weatherlink.com 1.10,2013-03-05 05:38:00,
2013-03-05 00:53:00,28.9,20.0,30.03,WNW,288,5.0,11.0,70,0.00,,,0.00,weatherlink.com 1.10,2013-03-05 05:53:00,
2013-03-05 01:08:00,29.2,20.0,30.03,NW,309,4.0,11.0,69,0.00,,,0.00,weatherlink.com 1.10,2013-03-05 06:08:00,
2013-03-05 01:23:00,29.0,20.0,30.04,NW,318,1.0,9.0,70,0.00,,,0.00,weatherlink.com 1.10,2013-03-05 06:23:00,
2013-03-05 01:39:00,29.0,20.0,30.04,West,271,3.0,7.0,70,0.00,,,0.00,weatherlink.com 1.10,2013-03-05 06:39:00,
2013-03-05 01:54:00,28.9,21.0,30.03,West,261,5.0,6.0,71,0.00,,,0.00,weatherlink.com 1.10,2013-03-05 06:54:00,
2013-03-05 02:09:00,28.8,20.0,30.04,West,279,1.0,9.0,71,0.00,,,0.00,weatherlink.com 1.10,2013-03-05 07:09:00,
2013-03-05 02:24:00,29.2,21.0,30.04,West,263,6.0,10.0,71,0.00,,,0.00,weatherlink.com 1.10,2013-03-05 07:24:00,
2013-03-05 02:39:00,29.1,21.0,30.04,West,279,3.0,10.0,71,0.00,,,0.00,weatherlink.com 1.10,2013-03-05 07:39:00,
2013-03-05 02:54:00,29.1,21.0,30.04,WNW,290,1.0,8.0,71,0.00,,,0.00,weatherlink.com 1.10,2013-03-05 07:54:00,
2013-03-05 03:09:00,29.3,21.0,30.05,WNW,286,1.0,8.0,70,0.00,,,0.00,weatherlink.com 1.10,2013-03-05 08:09:00,
2013-03-05 03:24:00,29.4,21.0,30.05,West,265,6.0,10.0,70,0.00,,,0.00,weatherlink.com 1.10,2013-03-05 08:24:00,
2013-03-05 03:39:00,29.5,21.0,30.05,WNW,290,3.0,12.0,70,0.00,,,0.00,weatherlink.com 1.10,2013-03-05 08:39:00,
2013-03-05 03:54:00,29.4,21.0,30.05,SW,233,3.0,9.0,71,0.00,,,0.00,weatherlink.com 1.10,2013-03-05 08:54:00,
2013-03-05 04:09:00,29.4,21.0,30.06,West,271,2.0,10.0,71,0.00,,,0.00,weatherlink.com 1.10,2013-03-05 09:09:00,
2013-03-05 04:24:00,29.3,21.0,30.06,NW,311,3.0,9.0,71,0.00,,,0.00,weatherlink.com 1.10,2013-03-05 09:24:00,
2013-03-05 04:39:00,29.3,21.0,30.06,WNW,302,7.0,10.0,72,0.00,,,0.00,weatherlink.com 1.10,2013-03-05 09:39:00,
2013-03-05 04:54:00,29.1,21.0,30.06,West,270,1.0,7.0,72,0.00,,,0.00,weatherlink.com 1.10,2013-03-05 09:54:00,
2013-03-05 05:09:00,29.0,21.0,30.06,WNW,303,6.0,10.0,73,0.00,,,0.00,weatherlink.com 1.10,2013-03-05 10:09:00,
2013-03-05 05:24:00,28.8,21.0,30.06,NW,316,2.0,10.0,73,0.00,,,0.00,weatherlink.com 1.10,2013-03-05 10:24:00,
2013-03-05 05:39:00,28.3,21.0,30.06,WSW,257,0.0,4.0,75,0.00,,,0.00,weatherlink.com 1.10,2013-03-05 10:39:00,
2013-03-05 05:54:00,28.1,21.0,30.06,WNW,298,0.0,3.0,75,0.00,,,0.00,weatherlink.com 1.10,2013-03-05 10:54:00,
2013-03-05 06:09:00,27.8,21.0,30.06,NW,313,1.0,6.0,76,0.00,,,0.00,weatherlink.com 1.10,2013-03-05 11:09:00,
2013-03-05 06:24:00,27.4,21.0,30.07,WNW,288,1.0,3.0,77,0.00,,,0.00,weatherlink.com 1.10,2013-03-05 11:24:00,
2013-03-05 06:39:00,27.0,21.0,30.06,WNW,286,2.0,4.0,78,0.00,,,0.00,weatherlink.com 1.10,2013-03-05 11:39:00,
2013-03-05 06:54:00,26.9,21.0,30.07,West,281,0.0,1.0,78,0.00,,,0.00,weatherlink.com 1.10,2013-03-05 11:54:00,
2013-03-05 07:09:00,27.2,22.0,30.07,West,281,1.0,4.0,79,0.00,,,0.00,weatherlink.com 1.10,2013-03-05 12:09:00,
2013-03-05 07:24:00,28.3,22.0,30.07,WNW,297,2.0,5.0,76,0.00,,,0.00,weatherlink.com 1.10,2013-03-05 12:24:00,
2013-03-05 07:39:00,28.7,22.0,30.07,West,265,1.0,8.0,75,0.00,,,0.00,weatherlink.com 1.10,2013-03-05 12:39:00,
2013-03-05 07:54:00,29.3,22.0,30.07,WNW,303,8.0,10.0,74,0.00,,,0.00,weatherlink.com 1.10,2013-03-05 12:54:00,
2013-03-05 08:09:00,29.9,23.0,30.07,West,277,2.0,8.0,74,0.00,,,0.00,weatherlink.com 1.10,2013-03-05 13:09:00,
2013-03-05 08:24:00,30.8,23.0,30.07,NW,320,8.0,9.0,72,0.00,,,0.00,weatherlink.com 1.10,2013-03-05 13:24:00,
2013-03-05 08:39:00,32.3,24.0,30.07,North,9,11.0,13.0,70,0.00,,,0.00,weatherlink.com 1.10,2013-03-05 13:39:00,
2013-03-05 08:54:00,32.5,23.0,30.07,North,355,12.0,14.0,69,0.00,,,0.00,weatherlink.com 1.10,2013-03-05 13:54:00,
2013-03-05 09:09:00,32.7,24.0,30.07,NW,321,8.0,13.0,69,0.00,,,0.00,weatherlink.com 1.10,2013-03-05 14:09:00,
2013-03-05 09:24:00,33.4,24.0,30.06,WNW,299,5.0,14.0,69,0.00,,,0.00,weatherlink.com 1.10,2013-03-05 14:24:00,
2013-03-05 09:39:00,33.5,24.0,30.07,North,11,8.0,12.0,68,0.00,,,0.00,weatherlink.com 1.10,2013-03-05 14:39:00,
2013-03-05 09:54:00,32.9,24.0,30.07,NW,319,6.0,12.0,69,0.00,,,0.00,weatherlink.com 1.10,2013-03-05 14:54:00,
2013-03-05 10:09:00,33.8,24.0,30.07,NW,304,3.0,13.0,68,0.00,,,0.00,weatherlink.com 1.10,2013-03-05 15:09:00,
2013-03-05 10:24:00,34.4,24.0,30.06,NNW,333,2.0,13.0,66,0.00,,,0.00,weatherlink.com 1.10,2013-03-05 15:24:00,
2013-03-05 10:39:00,34.9,24.0,30.06,North,5,4.0,11.0,65,0.00,,,0.00,weatherlink.com 1.10,2013-03-05 15:39:00,
2013-03-05 10:54:00,35.5,25.0,30.06,NW,311,5.0,13.0,65,0.00,,,0.00,weatherlink.com 1.10,2013-03-05 15:54:00,
2013-03-05 11:10:00,36.1,25.0,30.06,North,350,8.0,9.0,65,0.00,,,0.00,weatherlink.com 1.10,2013-03-05 16:10:00,
2013-03-05 11:25:00,36.3,25.0,30.05,NW,318,9.0,10.0,65,0.00,,,0.00,weatherlink.com 1.10,2013-03-05 16:25:00,
2013-03-05 11:40:00,37.0,26.0,30.06,West,269,4.0,9.0,65,0.00,,,0.00,weatherlink.com 1.10,2013-03-05 16:40:00,
2013-03-05 11:55:00,37.2,26.0,30.05,WNW,297,8.0,8.0,64,0.00,,,0.00,weatherlink.com 1.10,2013-03-05 16:55:00,
2013-03-05 12:10:00,37.0,26.0,30.04,NNE,19,9.0,10.0,64,0.00,,,0.00,weatherlink.com 1.10,2013-03-05 17:10:00,
2013-03-05 12:25:00,38.4,26.0,30.04,NNW,337,5.0,10.0,62,0.00,,,0.00,weatherlink.com 1.10,2013-03-05 17:25:00,
2013-03-05 12:39:00,38.4,26.0,30.04,WNW,284,0.0,13.0,62,0.00,,,0.00,weatherlink.com 1.10,2013-03-05 17:39:00,
2013-03-05 12:54:00,39.4,27.0,30.04,South,185,5.0,7.0,61,0.00,,,0.00,weatherlink.com 1.10,2013-03-05 17:54:00,
2013-03-05 13:09:00,39.3,27.0,30.03,WNW,300,3.0,7.0,61,0.00,,,0.00,weatherlink.com 1.10,2013-03-05 18:09:00,
2013-03-05 13:24:00,39.7,28.0,30.03,WNW,290,5.0,8.0,63,0.00,,,0.00,weatherlink.com 1.10,2013-03-05 18:24:00,
2013-03-05 13:40:00,40.7,27.0,30.02,ENE,57,0.0,7.0,58,0.00,,,0.00,weatherlink.com 1.10,2013-03-05 18:40:00,
2013-03-05 13:55:00,41.4,28.0,30.02,NW,313,4.0,7.0,59,0.00,,,0.00,weatherlink.com 1.10,2013-03-05 18:55:00,
2013-03-05 14:10:00,41.5,27.0,30.01,NNE,33,7.0,7.0,57,0.00,,,0.00,weatherlink.com 1.10,2013-03-05 19:10:00,
2013-03-05 14:25:00,41.7,27.0,30.00,West,262,3.0,8.0,57,0.00,,,0.00,weatherlink.com 1.10,2013-03-05 19:25:00,
2013-03-05 14:40:00,42.6,28.0,29.99,ENE,59,4.0,4.0,56,0.00,,,0.00,weatherlink.com 1.10,2013-03-05 19:40:00,
2013-03-05 14:55:00,42.7,27.0,29.98,NE,50,0.0,5.0,55,0.00,,,0.00,weatherlink.com 1.10,2013-03-05 19:55:00,
2013-03-05 15:10:00,42.9,28.0,29.98,NE,53,2.0,6.0,55,0.00,,,0.00,weatherlink.com 1.10,2013-03-05 20:10:00,
2013-03-05 15:25:00,43.4,28.0,29.97,NE,48,7.0,7.0,55,0.00,,,0.00,weatherlink.com 1.10,2013-03-05 20:25:00,
2013-03-05 15:39:00,43.6,28.0,29.96,NNE,33,1.0,7.0,55,0.00,,,0.00,weatherlink.com 1.10,2013-03-05 20:39:00,
2013-03-05 15:54:00,44.2,28.0,29.96,East,96,7.0,8.0,54,0.00,,,0.00,weatherlink.com 1.10,2013-03-05 20:54:00,
2013-03-05 16:09:00,43.9,28.0,29.95,South,179,1.0,5.0,55,0.00,,,0.00,weatherlink.com 1.10,2013-03-05 21:09:00,
2013-03-05 16:24:00,44.4,29.0,29.96,SW,226,3.0,5.0,54,0.00,,,0.00,weatherlink.com 1.10,2013-03-05 21:24:00,
2013-03-05 16:40:00,44.1,29.0,29.96,SSE,167,1.0,5.0,55,0.00,,,0.00,weatherlink.com 1.10,2013-03-05 21:40:00,
2013-03-05 16:54:00,44.4,29.0,29.96,SW,232,0.0,3.0,54,0.00,,,0.00,weatherlink.com 1.10,2013-03-05 21:54:00,
2013-03-05 17:10:00,44.6,29.0,29.97,SW,235,3.0,4.0,54,0.00,,,0.00,weatherlink.com 1.10,2013-03-05 22:10:00,
2013-03-05 17:25:00,43.6,28.0,29.97,SW,219,3.0,4.0,55,0.00,,,0.00,weatherlink.com 1.10,2013-03-05 22:25:00,
2013-03-05 17:40:00,42.7,29.0,29.98,WSW,238,2.0,3.0,59,0.00,,,0.00,weatherlink.com 1.10,2013-03-05 22:40:00,
2013-03-05 17:55:00,42.2,29.0,29.98,WSW,237,0.0,0.0,59,0.00,,,0.00,weatherlink.com 1.10,2013-03-05 22:55:00,
2013-03-05 18:10:00,42.0,31.0,29.98,WSW,237,0.0,0.0,66,0.00,,,0.00,weatherlink.com 1.10,2013-03-05 23:10:00,
2013-03-05 18:25:00,40.3,30.0,29.98,WSW,237,0.0,0.0,66,0.00,,,0.00,weatherlink.com 1.10,2013-03-05 23:25:00,
2013-03-05 18:39:00,39.2,28.0,29.98,WSW,237,1.0,1.0,65,0.00,,,0.00,weatherlink.com 1.10,2013-03-05 23:39:00,
2013-03-05 18:54:00,37.8,28.0,29.97,ENE,73,0.0,2.0,68,0.00,,,0.00,weatherlink.com 1.10,2013-03-05 23:54:00,
2013-03-05 19:09:00,36.8,29.0,29.97,ENE,73,0.0,1.0,72,0.00,,,0.00,weatherlink.com 1.10,2013-03-06 00:09:00,
2013-03-05 19:24:00,35.9,28.0,29.96,ENE,73,0.0,1.0,74,0.00,,,0.00,weatherlink.com 1.10,2013-03-06 00:24:00,
2013-03-05 19:39:00,35.0,29.0,29.96,ENE,61,2.0,2.0,79,0.00,,,0.00,weatherlink.com 1.10,2013-03-06 00:39:00,
2013-03-05 19:54:00,34.6,28.0,29.96,ENE,59,0.0,0.0,78,0.00,,,0.00,weatherlink.com 1.10,2013-03-06 00:54:00,
2013-03-05 20:09:00,34.2,28.0,29.96,ENE,59,0.0,1.0,79,0.00,,,0.00,weatherlink.com 1.10,2013-03-06 01:09:00,
2013-03-05 20:24:00,34.2,28.0,29.96,ENE,59,0.0,0.0,79,0.00,,,0.00,weatherlink.com 1.10,2013-03-06 01:24:00,
2013-03-05 20:39:00,33.2,28.0,29.97,ENE,59,0.0,0.0,81,0.00,,,0.00,weatherlink.com 1.10,2013-03-06 01:39:00,
2013-03-05 20:54:00,32.6,28.0,29.96,ENE,59,0.0,0.0,83,0.00,,,0.00,weatherlink.com 1.10,2013-03-06 01:54:00,
2013-03-05 21:09:00,32.6,28.0,29.95,ENE,60,0.0,2.0,82,0.00,,,0.00,weatherlink.com 1.10,2013-03-06 02:09:00,
2013-03-05 21:24:00,32.3,28.0,29.95,ENE,60,0.0,0.0,83,0.00,,,0.00,weatherlink.com 1.10,2013-03-06 02:24:00,
2013-03-05 21:39:00,32.5,28.0,29.95,ENE,71,3.0,3.0,83,0.00,,,0.00,weatherlink.com 1.10,2013-03-06 02:39:00,
2013-03-05 21:54:00,35.1,28.0,29.94,ESE,112,7.0,10.0,76,0.00,,,0.00,weatherlink.com 1.10,2013-03-06 02:54:00,
2013-03-05 22:10:00,35.9,28.0,29.94,East,100,6.0,9.0,74,0.00,,,0.00,weatherlink.com 1.10,2013-03-06 03:10:00,
2013-03-05 22:25:00,35.6,29.0,29.93,ESE,112,4.0,10.0,78,0.00,,,0.00,weatherlink.com 1.10,2013-03-06 03:25:00,
2013-03-05 22:40:00,35.3,29.0,29.92,East,88,5.0,11.0,79,0.00,,,0.00,weatherlink.com 1.10,2013-03-06 03:40:00,
2013-03-05 22:55:00,35.0,29.0,29.93,SE,126,6.0,13.0,79,0.00,,,0.00,weatherlink.com 1.10,2013-03-06 03:55:00,
2013-03-05 23:10:00,34.6,29.0,29.92,SE,130,3.0,8.0,79,0.00,,,0.00,weatherlink.com 1.10,2013-03-06 04:10:00,
2013-03-05 23:25:00,34.5,29.0,29.92,SE,140,2.0,8.0,79,0.00,,,0.00,weatherlink.com 1.10,2013-03-06 04:25:00,
2013-03-05 23:40:00,34.3,28.0,29.92,ESE,111,3.0,5.0,78,0.00,,,0.00,weatherlink.com 1.10,2013-03-06 04:40:00,
2013-03-05 23:55:00,34.1,28.0,29.92,East,90,2.0,3.0,78,0.00,,,0.00,weatherlink.com 1.10,2013-03-06 04:55:00,